EN

Hourly Weather Altino

Today, 25 January, Monday

Time Temperature Precipitation Wind Pressure Humidity
00:00 +3°C° 0 mm 3 mps 712 mmHg 84%
01:00 +3°C° 0 mm 3 mps 713 mmHg 82%
02:00 +2°C° 0 mm 3 mps 713 mmHg 77%
03:00 +2°C° 0 mm 3 mps 713 mmHg 71%
04:00 +1°C° 0 mm 3 mps 714 mmHg 66%
05:00 +1°C° 0 mm 3 mps 714 mmHg 62%
06:00 +1°C° 0 mm 3 mps 713 mmHg 58%
07:00 0°C° 0 mm 4 mps 713 mmHg 55%
08:00 +1°C° 0.1 mm 4 mps 713 mmHg 60%
09:00 +4°C° 0.1 mm 4 mps 713 mmHg 64%
10:00 +5°C° 0.1 mm 4 mps 713 mmHg 69%
11:00 +6°C° 0.3 mm 4 mps 713 mmHg 72%
12:00 +6°C° 0.3 mm 5 mps 712 mmHg 74%
13:00 +7°C° 0.3 mm 6 mps 711 mmHg 77%
14:00 +7°C° 0.1 mm 6 mps 711 mmHg 76%
15:00 +7°C° 0.1 mm 6 mps 711 mmHg 75%
16:00 +8°C° 0.1 mm 6 mps 711 mmHg 75%
17:00 +7°C° 0.1 mm 5 mps 711 mmHg 77%
18:00 +6°C° 0.1 mm 4 mps 711 mmHg 80%
19:00 +5°C° 0.1 mm 4 mps 711 mmHg 83%
20:00 +4°C° 0.1 mm 4 mps 712 mmHg 83%
21:00 +4°C° 0.1 mm 4 mps 712 mmHg 83%
22:00 +4°C° 0.1 mm 4 mps 713 mmHg 83%
23:00 +3°C° 0 mm 4 mps 713 mmHg 84%

Tomorrow, 26 January, Tuesday

Time Temperature Precipitation Wind Pressure Humidity
00:00 +1°C° 0 mm 5 mps 713 mmHg 84%
01:00 +1°C° 0 mm 6 mps 714 mmHg 84%
02:00 -1°C° 0 mm 6 mps 714 mmHg 82%
03:00 -1°C° 0 mm 6 mps 714 mmHg 81%
04:00 -1°C° 0 mm 6 mps 714 mmHg 79%
05:00 -1°C° 0.1 mm 6 mps 714 mmHg 80%
06:00 -1°C° 0.1 mm 5 mps 715 mmHg 82%
07:00 -1°C° 0.1 mm 5 mps 715 mmHg 84%
08:00 -1°C° 0.5 mm 6 mps 716 mmHg 83%
09:00 -1°C° 0.5 mm 6 mps 717 mmHg 82%
10:00 0°C° 0.5 mm 7 mps 717 mmHg 81%
11:00 0°C° 0.6 mm 7 mps 718 mmHg 79%
12:00 0°C° 0.6 mm 8 mps 718 mmHg 78%
13:00 +1°C° 0.6 mm 8 mps 718 mmHg 76%
14:00 0°C° 0.3 mm 7 mps 718 mmHg 75%
15:00 0°C° 0.3 mm 7 mps 719 mmHg 75%
16:00 +1°C° 0.3 mm 6 mps 719 mmHg 74%
17:00 0°C° 0.3 mm 5 mps 719 mmHg 77%
18:00 -1°C° 0.3 mm 5 mps 720 mmHg 79%
19:00 -1°C° 0.3 mm 4 mps 720 mmHg 81%
20:00 -2°C° 0.2 mm 4 mps 721 mmHg 79%
21:00 -2°C° 0.2 mm 4 mps 721 mmHg 77%
22:00 -1°C° 0.2 mm 3 mps 721 mmHg 75%
23:00 -1°C° 0.1 mm 3 mps 721 mmHg 72%

Day after tomorrow, 27 January, Wednesday

Time Temperature Precipitation Wind Pressure Humidity
00:00 -1°C° 0.1 mm 3 mps 721 mmHg 70%
01:00 -2°C° 0.1 mm 4 mps 721 mmHg 68%
02:00 -2°C° 0 mm 3 mps 721 mmHg 65%
03:00 -2°C° 0 mm 3 mps 721 mmHg 63%
04:00 -2°C° 0 mm 3 mps 721 mmHg 60%
05:00 -2°C° 0 mm 3 mps 721 mmHg 58%
06:00 -2°C° 0 mm 3 mps 721 mmHg 55%
07:00 -2°C° 0 mm 3 mps 722 mmHg 53%
08:00 0°C° 0.1 mm 3 mps 722 mmHg 52%
09:00 +1°C° 0.1 mm 3 mps 723 mmHg 50%
10:00 +2°C° 0.1 mm 3 mps 723 mmHg 49%
11:00 +3°C° 0.1 mm 3 mps 723 mmHg 49%
12:00 +4°C° 0.1 mm 3 mps 723 mmHg 49%
13:00 +4°C° 0.1 mm 3 mps 723 mmHg 49%
14:00 +4°C° 0 mm 3 mps 723 mmHg 52%
15:00 +5°C° 0 mm 2 mps 723 mmHg 55%
16:00 +6°C° 0 mm 1 mps 722 mmHg 58%
17:00 +4°C° 0 mm 1 mps 723 mmHg 58%
18:00 +3°C° 0 mm 1 mps 723 mmHg 59%
19:00 +2°C° 0 mm 1 mps 723 mmHg 59%
20:00 +1°C° 0 mm 2 mps 723 mmHg 57%
21:00 +1°C° 0 mm 2 mps 723 mmHg 56%
22:00 -1°C° 0 mm 2 mps 723 mmHg 55%
23:00 -1°C° 0 mm 2 mps 723 mmHg 54%

28 January, Thursday

Time Temperature Precipitation Wind Pressure Humidity
00:00 -1°C° 0 mm 2 mps 723 mmHg 52%
01:00 -1°C° 0 mm 2 mps 723 mmHg 51%
02:00 -1°C° 0 mm 2 mps 723 mmHg 50%
03:00 -1°C° 0 mm 2 mps 723 mmHg 48%
04:00 -1°C° 0 mm 2 mps 723 mmHg 47%
05:00 -1°C° 0 mm 2 mps 723 mmHg 46%
06:00 -1°C° 0 mm 2 mps 723 mmHg 44%
07:00 -1°C° 0 mm 2 mps 722 mmHg 43%
08:00 +2°C° 0 mm 2 mps 723 mmHg 44%
09:00 +3°C° 0 mm 2 mps 723 mmHg 44%
10:00 +5°C° 0 mm 2 mps 723 mmHg 44%
11:00 +6°C° 0 mm 2 mps 723 mmHg 43%
12:00 +7°C° 0 mm 2 mps 723 mmHg 43%
13:00 +8°C° 0 mm 2 mps 722 mmHg 42%
14:00 +7°C° 0 mm 2 mps 722 mmHg 48%
15:00 +6°C° 0 mm 2 mps 721 mmHg 55%
16:00 +7°C° 0 mm 1 mps 721 mmHg 61%
17:00 +6°C° 0 mm 1 mps 721 mmHg 64%
18:00 +5°C° 0 mm 1 mps 721 mmHg 67%
19:00 +4°C° 0 mm 1 mps 720 mmHg 69%
20:00 +4°C° 0 mm 1 mps 721 mmHg 71%
21:00 +5°C° 0 mm 1 mps 721 mmHg 73%
22:00 +5°C° 0 mm 1 mps 721 mmHg 76%
23:00 +4°C° 0 mm 1 mps 721 mmHg 76%

29 January, Friday

Time Temperature Precipitation Wind Pressure Humidity
00:00 +4°C° 0 mm 1 mps 721 mmHg 76%
01:00 +4°C° 0 mm 1 mps 721 mmHg 77%
02:00 +4°C° 0 mm 1 mps 721 mmHg 77%
03:00 +4°C° 0 mm 1 mps 721 mmHg 77%
04:00 +4°C° 0 mm 1 mps 721 mmHg 77%
05:00 +5°C° 0 mm 1 mps 721 mmHg 76%
06:00 +5°C° 0 mm 1 mps 722 mmHg 75%
07:00 +5°C° 0 mm 1 mps 722 mmHg 74%
08:00 +6°C° 0 mm 2 mps 722 mmHg 72%
09:00 +7°C° 0 mm 2 mps 722 mmHg 69%
10:00 +9°C° 0 mm 2 mps 723 mmHg 67%
11:00 +10°C° 0 mm 3 mps 722 mmHg 67%
12:00 +11°C° 0 mm 3 mps 722 mmHg 66%
13:00 +12°C° 0 mm 4 mps 722 mmHg 66%
14:00 +12°C° 0 mm 3 mps 722 mmHg 69%
15:00 +11°C° 0 mm 3 mps 721 mmHg 71%
16:00 +10°C° 0 mm 3 mps 721 mmHg 74%
17:00 +9°C° 0 mm 3 mps 721 mmHg 76%
18:00 +8°C° 0 mm 3 mps 720 mmHg 78%
19:00 +7°C° 0 mm 2 mps 720 mmHg 80%
20:00 +7°C° 0 mm 3 mps 720 mmHg 80%
21:00 +7°C° 0 mm 3 mps 720 mmHg 80%
22:00 +7°C° 0 mm 3 mps 720 mmHg 79%
23:00 +7°C° 0 mm 3 mps 719 mmHg 80%

30 January, Saturday

Time Temperature Precipitation Wind Pressure Humidity
00:00 +8°C° 0 mm 3 mps 719 mmHg 81%
01:00 +8°C° 0 mm 3 mps 718 mmHg 82%
02:00 +8°C° 0 mm 3 mps 718 mmHg 83%
03:00 +8°C° 0 mm 3 mps 717 mmHg 84%
04:00 +9°C° 0 mm 3 mps 716 mmHg 84%
05:00 +8°C° 0 mm 4 mps 716 mmHg 85%
06:00 +8°C° 0 mm 4 mps 715 mmHg 85%
07:00 +8°C° 0 mm 4 mps 715 mmHg 85%
08:00 +10°C° 0 mm 4 mps 714 mmHg 82%
09:00 +11°C° 0 mm 4 mps 714 mmHg 79%
10:00 +13°C° 0 mm 4 mps 714 mmHg 76%
11:00 +13°C° 0 mm 4 mps 714 mmHg 75%
12:00 +13°C° 0 mm 5 mps 714 mmHg 75%
13:00 +13°C° 0 mm 6 mps 715 mmHg 75%
14:00 +10°C° 0 mm 6 mps 715 mmHg 78%
15:00 +9°C° 0 mm 6 mps 714 mmHg 81%
16:00 +8°C° 0 mm 6 mps 714 mmHg 84%
17:00 +7°C° 0 mm 5 mps 715 mmHg 82%
18:00 +7°C° 0 mm 4 mps 715 mmHg 80%
19:00 +6°C° 0 mm 4 mps 716 mmHg 78%
20:00 +7°C° 0 mm 3 mps 716 mmHg 78%
21:00 +6°C° 0 mm 2 mps 716 mmHg 77%
22:00 +6°C° 0 mm 2 mps 716 mmHg 77%
23:00 +7°C° 0 mm 1 mps 716 mmHg 75%
Show more